Stations météo

réclame
Mon MeteoGroup
Kloevsjoehoejden, Suède (2325): Température de l'air & dewpoint: 17.01.2019 08:00:00 - 23.01.2019 08:00:00 (CET)Kloevsjoehoejden, Suède (2325): Vitesse du vent & gusts: 17.01.2019 08:00:00 - 23.01.2019 08:00:00 (CET)Kloevsjoehoejden, Suède (2325): Direction du vent: 17.01.2019 08:00:00 - 23.01.2019 08:00:00 (CET)Kloevsjoehoejden, Suède (2325): reduced air pressure: 17.01.2019 08:00:00 - 23.01.2019 08:00:00 (CET)Kloevsjoehoejden, Suède (2325): visibility: 17.01.2019 08:00:00 - 23.01.2019 08:00:00 (CET)Kloevsjoehoejden, Suède (2325): Quantités de précipitations: 17.01.2019 08:00:00 - 23.01.2019 08:00:00 (CET)
Date & Time tt [°C] td [°C] ff [km/h] ff [knt] fx [km/h] fx [knt] dd ppp [hPa] vv [km] rr [mm]
23.01.2019 08:00:00 -7,9 -8,7 24 13 52 28 WSW 1003,1 50 0,0
23.01.2019 07:00:00 -8,2 -9,0 33 18 51 28 W 1002,4 49 0,0
23.01.2019 06:00:00 -8,4 -9,2 31 17 52 28 W 1002,5 50 0,0
23.01.2019 05:00:00 -8,9 -9,8 35 19 52 28 W 1002,6 22 0,0
23.01.2019 04:00:00 -10,1 -11,0 27 15 44 24 W 1003,1 50 0,0
23.01.2019 03:00:00 -10,1 -11,0 19 11 44 24 WSW 1003,4 50 0,0
23.01.2019 02:00:00 -10,4 -11,4 24 13 41 22 WSW 1003,6 45 0,0
23.01.2019 01:00:00 - - - - - - - - - -
23.01.2019 00:00:00 -10,6 -11,6 19 10 39 21 WSW 1004,2 50 0,0
22.01.2019 23:00:00 -10,8 -11,8 16 9 32 17 WSW 1004,6 50 0,0
22.01.2019 22:00:00 -10,8 -11,8 10 5 35 19 WSW 1004,8 38 0,0
22.01.2019 21:00:00 -11,2 -12,2 20 11 40 21 WSW 1005,2 - 0,0
22.01.2019 20:00:00 -11,5 -12,5 20 11 36 19 WSW 1005,5 5 0,1
22.01.2019 19:00:00 -11,7 -12,9 19 10 36 19 WSW 1005,7 8 0,1
22.01.2019 18:00:00 -12,0 -13,0 19 11 33 18 SW 1006,0 - 0,0
22.01.2019 17:00:00 -12,4 -13,4 22 12 34 19 WSW 1006,4 0,7 0,0
22.01.2019 16:00:00 -12,8 -13,8 21 11 29 16 WSW 1007,0 - 0,0
22.01.2019 15:00:00 -11,6 -12,8 15 8 28 15 WSW 1007,1 50 0,0
22.01.2019 14:00:00 -11,9 -12,9 18 10 29 16 WSW 1007,6 20 0,0
22.01.2019 13:00:00 -10,8 -11,7 20 11 29 16 W 1007,8 10 0,0
22.01.2019 12:00:00 -10,1 -11,0 13 7 21 11 WSW 1008,4 50 0,0
22.01.2019 11:00:00 -7,2 -9,7 6 4 13 7 SW 1008,3 50 0,0
22.01.2019 10:00:00 -9,0 -10,9 10 5 14 8 WSW 1008,9 50 0,0
22.01.2019 09:00:00 -8,5 -10,4 9 5 14 8 WSW 1009,0 50 0,0
22.01.2019 08:00:00 -8,5 -11,0 10 6 14 7 WSW 1009,1 50 0,0
22.01.2019 07:00:00 -9,0 -10,8 12 7 18 10 W 1009,6 50 0,0
22.01.2019 06:00:00 -7,3 -9,8 9 5 12 7 WSW 1009,7 50 0,0
22.01.2019 05:00:00 -7,3 -9,4 10 5 16 9 W 1010,2 50 0,0
22.01.2019 04:00:00 -7,2 -8,7 11 6 18 10 W 1010,8 50 0,0
22.01.2019 03:00:00 -8,0 -9,1 11 6 20 11 WSW 1011,2 50 0,0
22.01.2019 02:00:00 -8,2 -9,1 15 8 23 12 WSW 1011,8 50 0,0
22.01.2019 01:00:00 -8,4 -9,3 16 9 22 12 WSW 1012,2 50 0,0
22.01.2019 00:00:00 -8,2 -9,1 15 8 19 11 WSW 1012,5 50 0,0
21.01.2019 23:00:00 -7,8 -8,6 11 6 24 13 W 1012,8 50 0,0
21.01.2019 22:00:00 -8,5 -9,3 17 9 30 16 WSW 1013,1 50 0,0
21.01.2019 21:00:00 -8,7 -9,5 18 10 30 16 W 1013,2 50 0,0
21.01.2019 20:00:00 -9,6 -10,5 19 10 36 19 WSW 1013,6 50 0,0
21.01.2019 19:00:00 -10,0 -10,9 19 10 34 19 WSW 1013,8 25 0,0
21.01.2019 18:00:00 -10,0 -10,8 19 10 29 16 WSW 1014,1 50 0,0
21.01.2019 17:00:00 -10,3 -11,2 17 9 27 15 WSW 1014,2 50 0,0
21.01.2019 16:00:00 -9,9 -10,8 16 9 28 15 SW 1014,0 50 0,0
21.01.2019 15:00:00 -9,5 -10,4 16 9 26 14 SW 1014,0 7 0,0
21.01.2019 14:00:00 -9,5 -11,1 10 5 21 11 SW 1014,4 10 0,0
21.01.2019 13:00:00 -9,5 -11,1 11 6 26 14 SW 1014,7 11 0,0
21.01.2019 12:00:00 -10,0 -12,6 14 8 23 13 SW 1014,8 50 0,0
21.01.2019 11:00:00 -10,0 -13,9 11 6 17 9 SSW 1014,8 50 0,0
21.01.2019 10:00:00 -10,5 -13,9 10 5 15 8 SW 1014,5 50 0,0
21.01.2019 09:00:00 -11,7 -14,0 10 6 16 9 SW 1014,3 50 0,0
21.01.2019 08:00:00 -11,5 -14,1 11 6 19 10 SW 1013,9 50 0,0
21.01.2019 07:00:00 -11,6 -14,2 11 6 17 9 SW 1013,7 50 0,0
21.01.2019 06:00:00 -11,0 -13,9 9 5 13 7 SW 1013,6 50 0,0
21.01.2019 05:00:00 -10,5 -13,6 8 5 11 6 SW 1013,5 50 0,0
21.01.2019 04:00:00 -10,2 -13,8 7 4 11 6 SW 1013,6 50 0,0
21.01.2019 03:00:00 -9,8 -13,1 9 5 11 6 WSW 1013,8 50 0,0
21.01.2019 02:00:00 -9,7 -12,8 7 4 11 6 W 1014,0 50 0,0
21.01.2019 01:00:00 -10,2 -12,8 10 5 16 8 W 1014,4 50 0,0
21.01.2019 00:00:00 - - - - 16 9 - - - -
20.01.2019 23:00:00 -10,3 -12,9 12 7 19 10 WNW 1014,7 50 0,0
20.01.2019 22:00:00 -10,2 -12,5 14 8 21 12 WNW 1014,7 50 0,0
20.01.2019 21:00:00 -10,0 -12,2 13 7 28 15 WNW 1014,6 50 0,0
20.01.2019 20:00:00 -10,1 -12,1 18 10 27 15 WNW 1014,5 50 0,0
20.01.2019 19:00:00 -9,3 -12,2 19 10 32 18 NW 1014,2 50 0,0
20.01.2019 18:00:00 -9,9 -12,7 18 10 33 18 WNW 1014,4 50 0,0
20.01.2019 17:00:00 -8,9 -11,9 22 12 34 19 NW 1014,1 50 0,0
20.01.2019 16:00:00 -8,7 -12,0 21 11 37 20 NW 1014,1 50 0,0
20.01.2019 15:00:00 -8,6 -11,9 22 12 39 21 NW 1013,9 50 0,0
20.01.2019 14:00:00 -8,4 -11,5 22 12 36 20 NW 1013,8 50 0,0
20.01.2019 13:00:00 -8,7 -11,4 20 11 37 20 NW 1013,9 50 0,0
20.01.2019 12:00:00 - - - - 33 18 - - - -
20.01.2019 11:00:00 -8,9 -11,7 19 10 40 22 NW 1014,0 50 0,0
20.01.2019 10:00:00 -9,1 -11,5 24 13 42 23 NW 1013,5 50 0,0
20.01.2019 09:00:00 -8,5 -11,3 26 14 45 24 NW 1012,5 50 0,0
20.01.2019 08:00:00 -8,9 -11,3 23 12 48 26 NNW 1012,2 50 0,0
20.01.2019 07:00:00 -9,1 -11,5 26 14 46 25 NW 1011,8 50 0,0
20.01.2019 06:00:00 -9,6 -12,2 22 12 40 22 NW 1011,8 50 0,0
20.01.2019 05:00:00 -9,8 -13,2 23 12 41 22 NW 1011,4 50 0,0
20.01.2019 04:00:00 -9,8 -13,1 24 13 45 25 WNW 1011,0 50 0,0
20.01.2019 03:00:00 -9,6 -12,9 27 15 47 26 WNW 1010,4 50 0,0
20.01.2019 02:00:00 -9,6 -12,6 28 15 48 26 NW 1010,3 50 0,0
20.01.2019 01:00:00 -9,9 -12,8 25 14 42 23 WNW 1010,0 50 0,0
20.01.2019 00:00:00 -10,5 -12,8 26 14 43 23 WNW 1009,8 50 0,0
19.01.2019 23:00:00 -10,1 -13,0 27 15 49 27 WNW 1009,3 50 0,0
19.01.2019 22:00:00 -9,8 -12,3 29 15 51 28 WNW 1008,6 50 0,0
19.01.2019 21:00:00 -9,5 -12,0 30 16 48 26 NW 1008,4 50 0,0
19.01.2019 20:00:00 -9,6 -11,9 29 16 50 27 WNW 1007,9 50 0,0
19.01.2019 19:00:00 -9,6 -12,2 29 15 58 31 NW 1007,2 50 0,0
19.01.2019 18:00:00 -9,2 -11,9 33 18 57 31 NW 1006,8 38 0,0
19.01.2019 17:00:00 -9,3 -11,8 34 19 58 31 NW 1006,0 17 0,0
19.01.2019 16:00:00 -9,0 -11,5 37 20 63 34 WNW 1005,2 11 0,0
19.01.2019 15:00:00 -8,8 -11,2 36 19 64 35 NW 1004,8 5 0,0
19.01.2019 14:00:00 -8,4 -11,1 34 19 58 31 NW 1004,5 11 0,0
19.01.2019 13:00:00 -8,1 -11,4 26 14 50 27 NW 1004,4 50 0,0
19.01.2019 12:00:00 -7,3 -10,5 27 14 43 23 NW 1003,9 46 0,0
19.01.2019 11:00:00 -7,1 -9,8 28 15 51 28 NW 1003,4 27 0,0
19.01.2019 10:00:00 -8,3 -9,5 34 18 53 28 W 1002,5 7 0,0
19.01.2019 09:00:00 -8,2 -9,5 32 17 50 27 W 1002,0 28 0,0
19.01.2019 08:00:00 -8,9 -10,1 32 17 47 26 W 1002,2 14 0,0
19.01.2019 07:00:00 -8,8 -11,0 31 17 46 25 WSW 1002,5 14 0,0
19.01.2019 06:00:00 -9,4 -12,7 24 13 39 21 WSW 1002,9 50 0,0
19.01.2019 05:00:00 -9,2 -12,0 29 15 41 22 WSW 1004,5 50 0,0
19.01.2019 04:00:00 -9,1 -11,2 22 12 34 19 WSW 1005,1 50 0,0
19.01.2019 03:00:00 -9,4 -10,7 24 13 36 20 W 1005,8 50 0,0
19.01.2019 02:00:00 -9,2 -10,3 22 12 38 20 W 1006,1 50 0,0
19.01.2019 01:00:00 -8,3 -10,1 26 14 37 20 W 1006,3 50 0,0
19.01.2019 00:00:00 -9,2 -10,7 15 8 32 17 W 1006,8 50 0,0
18.01.2019 23:00:00 -8,4 -10,1 25 14 36 19 W 1006,6 50 0,0
18.01.2019 22:00:00 -9,0 -10,8 23 13 34 18 W 1006,6 50 0,0
18.01.2019 21:00:00 -8,8 -10,9 23 13 35 19 W 1006,1 50 0,0
18.01.2019 20:00:00 -9,0 -10,6 23 12 41 22 WNW 1005,7 50 0,0
18.01.2019 19:00:00 -8,9 -10,5 28 15 50 27 WNW 1004,9 50 0,0
18.01.2019 18:00:00 -8,2 -10,4 30 16 56 30 NW 1004,2 14 0,0
18.01.2019 17:00:00 -8,7 -10,9 24 13 48 26 WNW 1003,8 50 0,0
18.01.2019 16:00:00 -8,7 -11,4 25 13 45 25 NW 1003,5 50 0,0
18.01.2019 15:00:00 -8,4 -10,8 28 15 50 27 WNW 1002,8 50 0,0
18.01.2019 14:00:00 -8,1 -10,6 30 16 53 28 WNW 1002,0 27 0,0
18.01.2019 13:00:00 -7,9 -10,4 27 15 46 25 WNW 1001,8 50 0,0
18.01.2019 12:00:00 -8,4 -10,6 30 16 52 28 WNW 1001,4 25 0,0
18.01.2019 11:00:00 -7,8 -10,6 29 15 46 25 NW 1000,7 43 0,0
18.01.2019 10:00:00 -8,3 -10,8 23 12 45 24 NW 1000,7 50 0,0
18.01.2019 09:00:00 -8,5 -10,9 23 12 40 21 NW 1000,1 50 0,0
18.01.2019 08:00:00 -8,5 -11,2 25 13 43 23 NW 999,4 41 0,0
18.01.2019 07:00:00 -8,3 -11,1 25 14 43 23 WNW 998,7 50 0,0
18.01.2019 06:00:00 -9,2 -11,3 26 14 45 25 WNW 998,5 48 0,0
18.01.2019 05:00:00 -9,6 -11,9 25 14 54 29 WNW 998,1 50 0,0
18.01.2019 04:00:00 - - - - 56 30 - - - -
18.01.2019 03:00:00 -8,6 -10,8 36 19 58 31 NW 997,1 4,9 0,0
18.01.2019 02:00:00 -9,0 -11,2 32 17 57 31 WNW 997,2 - 0,0
18.01.2019 01:00:00 -8,9 -10,7 32 17 55 30 NW 997,0 6 0,0
18.01.2019 00:00:00 -9,1 -10,9 32 17 54 29 NW 996,9 12 0,0
17.01.2019 23:00:00 -8,9 -10,4 30 16 53 28 NW 996,5 12 0,0
17.01.2019 22:00:00 -8,3 -9,5 26 14 61 33 NW 995,9 13 0,0
17.01.2019 21:00:00 -7,6 -8,7 34 18 55 30 NW 995,0 3,7 0,0
17.01.2019 20:00:00 -7,1 -8,0 30 16 56 31 NW 994,1 8 0,2
17.01.2019 19:00:00 -7,3 -8,1 33 18 55 30 NW 993,6 2,4 0,0
17.01.2019 18:00:00 -8,0 -8,9 32 17 57 31 NW 993,2 6 0,0
17.01.2019 17:00:00 -9,3 -10,4 31 17 49 27 NW 992,6 10 0,0
17.01.2019 16:00:00 -10,6 -11,8 21 11 40 22 WNW 992,6 50 0,0
17.01.2019 15:00:00 -9,3 -10,4 25 14 56 30 NW 992,1 17 0,0
17.01.2019 14:00:00 -10,4 -11,4 27 15 43 23 NW 992,0 21 0,0
17.01.2019 13:00:00 -10,3 -11,3 22 12 42 23 NNW 992,1 21 0,0
17.01.2019 12:00:00 - - - - 39 21 - - - -
17.01.2019 11:00:00 -11,7 -13,0 17 9 29 16 NW 992,3 15 0,0
17.01.2019 10:00:00 -11,8 -13,0 17 9 27 15 NNW 992,1 23 0,1
17.01.2019 09:00:00 -12,3 -13,6 16 9 27 15 NNW 991,4 4,4 0,2
17.01.2019 08:00:00 -12,5 -13,8 16 8 34 19 N 990,3 - 0,2

tt = Température de l'air
td = dewpoint
ff = Vitesse du vent
fx = gusts
dd = Direction du vent
ppp = reduced air pressure
vv = visibility
rr = Quantités de précipitations

stations d'obs. à proximité